Location: St. Louis
(38.6270°N, 90.1994°W)
Time: 20:17:51
(UTC-06:00)

Altair - Pass Details

Date: 07 December 2021
Orbit: 1501 x 1683 km, 47.2° (Epoch: 26 January)

Event Time Altitude Azimuth Distance (km) Brightness Sun altitude
Rises 20:09:52 0° 300° (WNW) 4,684 10.7 -40.3°
Reaches altitude 10° 20:12:56 10° 300° (WNW) 3,684 10.0 -40.9°
Enters shadow 20:19:48 56° 301° (WNW) 1,744 7.8 -42.3°
